| time (UTC) | temp F | wind direction | speed MPH | gust MPH | rain 1hr in | rain 24hr in | rain mn in | humidity % | barometer mb |
| 20260904083230 | 72 | 176 | 5.0 | 10.0 | 0.00 | 0.00 | 0.00 | 52 | 1022.4 |
| 20260904082220 | 71 | 157 | 5.0 | 10.0 | 0.00 | 0.00 | 0.00 | 54 | 1022.5 |
| 20260904081720 | 71 | 161 | 5.0 | 8.0 | 0.00 | 0.00 | 0.00 | 54 | 1022.4 |
| 20260904081210 | 71 | 178 | 4.0 | 8.0 | 0.00 | 0.00 | 0.00 | 54 | 1022.4 |
| 20260904080744 | 70 | 176 | 2.0 | 5.0 | 0.00 | 0.00 | 0.00 | 56 | 1022.4 |
| 20260904080219 | 70 | 160 | 1.0 | 0.0 | 0.00 | 0.00 | 0.00 | 57 | 1022.5 |
| 20260904075717 | 70 | 167 | 0.0 | 0.0 | 0.00 | 0.00 | 0.00 | 59 | 1022.5 |
| 20260904075211 | 69 | 172 | 0.0 | 0.0 | 0.00 | 0.00 | 0.00 | 60 | 1022.5 |
| 20260904074714 | 69 | 191 | 0.0 | 0.0 | 0.00 | 0.00 | 0.00 | 61 | 1022.5 |
| 20260904074226 | 68 | 208 | 0.0 | 0.0 | 0.00 | 0.00 | 0.00 | 64 | 1022.6 |
| 20260904073216 | 67 | 205 | 0.0 | 0.0 | 0.00 | 0.00 | 0.00 | 67 | 1022.5 |
| 20260904072728 | 66 | 164 | 0.0 | 0.0 | 0.00 | 0.00 | 0.00 | 67 | 1022.5 |
| 20260904072229 | 65 | 85 | 0.0 | 0.0 | 0.00 | 0.00 | 0.00 | 69 | 1022.7 |
| 20260904070711 | 63 | 85 | 0.0 | 0.0 | 0.00 | 0.00 | 0.00 | 73 | 1022.8 |
| 20260904070221 | 62 | 85 | 0.0 | 0.0 | 0.00 | 0.00 | 0.00 | 75 | 1022.8 |
| 20260904065713 | 61 | 85 | 0.0 | 0.0 | 0.00 | 0.00 | 0.00 | 75 | 1022.8 |
| 20260904065215 | 60 | 85 | 0.0 | 0.0 | 0.00 | 0.00 | 0.00 | 76 | 1023.0 |
| 20260904064724 | 59 | 85 | 0.0 | 0.0 | 0.00 | 0.00 | 0.00 | 79 | 1023.1 |
| 20260904064212 | 58 | 85 | 0.0 | 0.0 | 0.00 | 0.00 | 0.00 | 79 | 1023.1 |
| 20260904063723 | 58 | 85 | 0.0 | 0.0 | 0.00 | 0.00 | 0.00 | 80 | 1023.1 |
| 20260904063216 | 57 | 85 | 0.0 | 0.0 | 0.00 | 0.00 | 0.00 | 82 | 1023.1 |
| 20260904061732 | 56 | 59 | 0.0 | 0.0 | 0.00 | 0.00 | 0.00 | 83 | 1023.1 |
| 20260904060724 | 55 | 59 | 0.0 | 0.0 | 0.00 | 0.00 | 0.00 | 83 | 1023.2 |
| 20260904060215 | 55 | 59 | 0.0 | 0.0 | 0.00 | 0.00 | 0.00 | 83 | 1023.2 |
| 20260904055218 | 55 | 59 | 0.0 | 0.0 | 0.00 | 0.00 | 0.00 | 83 | 1023.2 |
| 20260904054719 | 55 | 59 | 0.0 | 0.0 | 0.00 | 0.00 | 0.00 | 83 | 1023.3 |
| 20260904053724 | 55 | 59 | 0.0 | 0.0 | 0.00 | 0.00 | 0.00 | 83 | 1023.2 |
| 20260904053219 | 55 | 59 | 0.0 | 0.0 | 0.00 | 0.00 | 0.00 | 83 | 1023.2 |
| 20260904052726 | 55 | 59 | 0.0 | 0.0 | 0.00 | 0.00 | 0.00 | 83 | 1023.2 |
| 20260904052228 | 55 | 59 | 0.0 | 0.0 | 0.00 | 0.00 | 0.00 | 82 | 1023.2 |
| 20260904051722 | 55 | 59 | 0.0 | 0.0 | 0.00 | 0.00 | 0.00 | 82 | 1023.1 |
| 20260904050748 | 55 | 22 | 0.0 | 0.0 | 0.00 | 0.00 | 0.00 | 82 | 1023.3 |
| 20260904050223 | 55 | 22 | 0.0 | 0.0 | 0.00 | 0.00 | 0.00 | 82 | 1023.3 |
| 20260904045731 | 55 | 27 | 0.0 | 0.0 | 0.00 | 0.00 | 0.00 | 82 | 1023.3 |
| 20260904045223 | 55 | 27 | 0.0 | 0.0 | 0.00 | 0.00 | 0.00 | 82 | 1023.4 |
| 20260904044729 | 55 | 27 | 0.0 | 0.0 | 0.00 | 0.00 | 0.00 | 82 | 1023.3 |
| 20260904044220 | 55 | 27 | 0.0 | 0.0 | 0.00 | 0.00 | 0.00 | 81 | 1023.3 |
| 20260904043717 | 55 | 27 | 0.0 | 0.0 | 0.00 | 0.00 | 0.00 | 81 | 1023.3 |
| 20260904043221 | 55 | 27 | 0.0 | 0.0 | 0.00 | 0.00 | 0.00 | 81 | 1023.3 |
| 20260904042222 | 55 | 27 | 0.0 | 0.0 | 0.00 | 0.00 | 0.00 | 81 | 1023.4 |
| 20260904041729 | 55 | 27 | 0.0 | 0.0 | 0.00 | 0.00 | 0.00 | 81 | 1023.4 |
| 20260904041211 | 55 | 27 | 0.0 | 0.0 | 0.00 | 0.00 | 0.00 | 81 | 1023.4 |
| 20260904040714 | 55 | 27 | 0.0 | 0.0 | 0.00 | 0.00 | 0.00 | 81 | 1023.4 |
| 20260904040222 | 55 | 27 | 0.0 | 0.0 | 0.00 | 0.00 | 0.00 | 81 | 1023.6 |
| 20260904035225 | 56 | 27 | 0.0 | 0.0 | 0.00 | 0.00 | 0.00 | 81 | 1023.6 |
| 20260904034714 | 56 | 27 | 0.0 | 0.0 | 0.00 | 0.00 | 0.00 | 80 | 1023.7 |
| 20260904034214 | 56 | 27 | 0.0 | 0.0 | 0.00 | 0.00 | 0.00 | 80 | 1023.8 |
| 20260904033219 | 56 | 27 | 0.0 | 0.0 | 0.00 | 0.00 | 0.00 | 80 | 1023.8 |
| 20260904032708 | 56 | 27 | 0.0 | 0.0 | 0.00 | 0.00 | 0.00 | 80 | 1023.9 |
| 20260904032218 | 56 | 27 | 0.0 | 0.0 | 0.00 | 0.00 | 0.00 | 80 | 1023.9 |
| 20260904031722 | 56 | 27 | 0.0 | 0.0 | 0.00 | 0.00 | 0.00 | 80 | 1023.9 |
| 20260904030728 | 56 | 25 | 0.0 | 0.0 | 0.00 | 0.00 | 0.00 | 80 | 1023.8 |
| 20260904030218 | 56 | 355 | 0.0 | 0.0 | 0.00 | 0.00 | 0.00 | 79 | 1023.8 |
| 20260904025720 | 56 | 44 | 0.0 | 0.0 | 0.00 | 0.00 | 0.00 | 79 | 1023.8 |
| 20260904024720 | 56 | 51 | 0.0 | 0.0 | 0.00 | 0.00 | 0.00 | 79 | 1023.9 |
| 20260904024231 | 56 | 51 | 0.0 | 0.0 | 0.00 | 0.00 | 0.00 | 79 | 1024.0 |
| 20260904023723 | 56 | 51 | 0.0 | 0.0 | 0.00 | 0.00 | 0.00 | 79 | 1024.1 |
| 20260904022718 | 56 | 355 | 0.0 | 0.0 | 0.00 | 0.00 | 0.00 | 79 | 1024.3 |
| 20260904021749 | 56 | 342 | 0.0 | 0.0 | 0.00 | 0.00 | 0.00 | 78 | 1024.1 |
| 20260904021213 | 56 | 342 | 0.0 | 0.0 | 0.00 | 0.00 | 0.00 | 78 | 1024.4 |
| 20260904020716 | 56 | 90 | 0.0 | 0.0 | 0.00 | 0.00 | 0.00 | 78 | 1024.3 |
| 20260904020237 | 57 | 90 | 0.0 | 0.0 | 0.00 | 0.00 | 0.00 | 78 | 1024.3 |
| 20260904015731 | 57 | 96 | 0.0 | 0.0 | 0.00 | 0.00 | 0.00 | 78 | 1024.3 |
| 20260904015218 | 57 | 126 | 0.0 | 0.0 | 0.00 | 0.00 | 0.00 | 78 | 1024.3 |
| 20260904014722 | 57 | 40 | 0.0 | 0.0 | 0.00 | 0.00 | 0.00 | 78 | 1024.3 |
| 20260904013223 | 57 | 19 | 0.0 | 0.0 | 0.00 | 0.00 | 0.00 | 78 | 1024.5 |
| 20260904012721 | 57 | 19 | 0.0 | 0.0 | 0.00 | 0.00 | 0.00 | 77 | 1024.6 |
| 20260904012221 | 57 | 19 | 0.0 | 0.0 | 0.00 | 0.00 | 0.00 | 77 | 1024.6 |
| 20260904011208 | 58 | 269 | 0.0 | 0.0 | 0.00 | 0.00 | 0.00 | 77 | 1024.6 |
| 20260904010217 | 58 | 116 | 0.0 | 0.0 | 0.00 | 0.00 | 0.00 | 76 | 1024.6 |
| 20260904005727 | 58 | 105 | 0.0 | 0.0 | 0.00 | 0.00 | 0.00 | 76 | 1024.6 |
| 20260904005229 | 58 | 105 | 0.0 | 0.0 | 0.00 | 0.00 | 0.00 | 77 | 1024.6 |
| 20260904004727 | 58 | 105 | 0.0 | 0.0 | 0.00 | 0.00 | 0.00 | 76 | 1024.6 |
| 20260904004219 | 58 | 66 | 0.0 | 0.0 | 0.00 | 0.00 | 0.00 | 76 | 1024.7 |
| 20260904003719 | 58 | 67 | 0.0 | 0.0 | 0.00 | 0.00 | 0.00 | 76 | 1024.8 |
| 20260904003223 | 58 | 78 | 0.0 | 0.0 | 0.00 | 0.00 | 0.00 | 76 | 1024.8 |
| 20260904002714 | 58 | 215 | 0.0 | 0.0 | 0.00 | 0.00 | 0.00 | 76 | 1024.8 |
| 20260904002221 | 58 | 215 | 0.0 | 0.0 | 0.00 | 0.00 | 0.00 | 76 | 1024.9 |
| 20260904001718 | 58 | 217 | 0.0 | 0.0 | 0.00 | 0.00 | 0.00 | 76 | 1024.9 |
| 20260904001222 | 58 | 219 | 0.0 | 0.0 | 0.00 | 0.00 | 0.00 | 76 | 1025.0 |
| 20260904000725 | 58 | 63 | 0.0 | 0.0 | 0.00 | 0.00 | 0.00 | 76 | 1025.0 |
| 20260904000221 | 58 | 39 | 0.0 | 0.0 | 0.00 | 0.00 | 0.00 | 76 | 1025.0 |
| 20260903235727 | 58 | 0 | 0.0 | 0.0 | 0.00 | 0.00 | 0.00 | 76 | 1024.9 |
| 20260903235215 | 58 | 249 | 0.0 | 0.0 | 0.00 | 0.00 | 0.00 | 76 | 1024.9 |
| 20260903234716 | 59 | 249 | 0.0 | 0.0 | 0.00 | 0.00 | 0.00 | 75 | 1024.9 |
| 20260903234234 | 59 | 249 | 0.0 | 0.0 | 0.00 | 0.00 | 0.00 | 75 | 1024.9 |
| 20260903233721 | 59 | 140 | 0.0 | 0.0 | 0.00 | 0.00 | 0.00 | 76 | 1024.9 |
| 20260903232222 | 59 | 14 | 0.0 | 0.0 | 0.00 | 0.00 | 0.00 | 75 | 1025.1 |
| 20260903231707 | 59 | 14 | 0.0 | 0.0 | 0.00 | 0.00 | 0.00 | 75 | 1025.1 |
| 20260903230716 | 59 | 355 | 0.0 | 0.0 | 0.00 | 0.00 | 0.00 | 75 | 1025.2 |
| 20260903225718 | 59 | 350 | 0.0 | 0.0 | 0.00 | 0.00 | 0.00 | 75 | 1025.2 |
| 20260903225218 | 59 | 350 | 0.0 | 0.0 | 0.00 | 0.00 | 0.00 | 75 | 1025.3 |
| 20260903224722 | 59 | 350 | 0.0 | 0.0 | 0.00 | 0.00 | 0.00 | 75 | 1025.2 |
| 20260903223717 | 59 | 346 | 0.0 | 0.0 | 0.00 | 0.00 | 0.00 | 74 | 1025.3 |
| 20260903223218 | 59 | 329 | 0.0 | 0.0 | 0.00 | 0.00 | 0.00 | 74 | 1025.3 |
| 20260903222226 | 60 | 329 | 0.0 | 0.0 | 0.00 | 0.00 | 0.00 | 74 | 1025.3 |
| 20260903221723 | 60 | 329 | 0.0 | 0.0 | 0.00 | 0.00 | 0.00 | 74 | 1025.2 |
| 20260903220743 | 60 | 174 | 0.0 | 0.0 | 0.00 | 0.00 | 0.00 | 73 | 1025.2 |
| 20260903220211 | 60 | 12 | 0.0 | 0.0 | 0.00 | 0.00 | 0.00 | 73 | 1025.2 |
| 20260903215720 | 60 | 12 | 0.0 | 0.0 | 0.00 | 0.00 | 0.00 | 73 | 1025.2 |
| 20260903215226 | 60 | 12 | 0.0 | 0.0 | 0.00 | 0.00 | 0.00 | 72 | 1025.2 |
| 20260903213714 | 61 | 59 | 0.0 | 0.0 | 0.00 | 0.00 | 0.00 | 72 | 1025.2 |
| 20260903213217 | 61 | 329 | 0.0 | 0.0 | 0.00 | 0.00 | 0.00 | 72 | 1025.2 |
| 20260903212728 | 61 | 329 | 0.0 | 0.0 | 0.00 | 0.00 | 0.00 | 71 | 1025.2 |
| 20260903212223 | 61 | 329 | 0.0 | 0.0 | 0.00 | 0.00 | 0.00 | 71 | 1025.2 |
| 20260903210720 | 62 | 38 | 0.0 | 0.0 | 0.00 | 0.00 | 0.00 | 70 | 1025.4 |
| 20260903210227 | 62 | 17 | 0.0 | 0.0 | 0.00 | 0.00 | 0.00 | 70 | 1025.4 |
| 20260903205720 | 62 | 16 | 0.0 | 0.0 | 0.00 | 0.00 | 0.00 | 69 | 1025.4 |
| 20260903205222 | 62 | 5 | 0.0 | 0.0 | 0.00 | 0.00 | 0.00 | 69 | 1025.4 |
| 20260903204720 | 62 | 75 | 0.0 | 0.0 | 0.00 | 0.00 | 0.00 | 69 | 1025.3 |
| 20260903204242 | 62 | 76 | 0.0 | 0.0 | 0.00 | 0.00 | 0.00 | 69 | 1025.3 |
| 20260903203709 | 62 | 112 | 0.0 | 0.0 | 0.00 | 0.00 | 0.00 | 68 | 1025.3 |
| 20260903203232 | 62 | 100 | 0.0 | 0.0 | 0.00 | 0.00 | 0.00 | 68 | 1025.3 |
| 20260903202727 | 62 | 100 | 0.0 | 0.0 | 0.00 | 0.00 | 0.00 | 68 | 1025.3 |
| 20260903202222 | 63 | 344 | 0.0 | 0.0 | 0.00 | 0.00 | 0.00 | 68 | 1025.3 |
| 20260903201723 | 63 | 344 | 0.0 | 0.0 | 0.00 | 0.00 | 0.00 | 67 | 1025.3 |
| 20260903201214 | 63 | 338 | 0.0 | 0.0 | 0.00 | 0.00 | 0.00 | 67 | 1025.3 |
| 20260903200212 | 63 | 338 | 0.0 | 0.0 | 0.00 | 0.00 | 0.00 | 66 | 1025.3 |
| 20260903195719 | 64 | 338 | 0.0 | 0.0 | 0.00 | 0.00 | 0.00 | 66 | 1025.3 |
| 20260903195212 | 64 | 338 | 0.0 | 0.0 | 0.00 | 0.00 | 0.00 | 66 | 1025.3 |
| 20260903194721 | 64 | 338 | 0.0 | 0.0 | 0.00 | 0.00 | 0.00 | 65 | 1025.3 |
| 20260903194227 | 64 | 338 | 0.0 | 0.0 | 0.00 | 0.00 | 0.00 | 65 | 1025.3 |
| 20260903193714 | 64 | 338 | 0.0 | 0.0 | 0.00 | 0.00 | 0.00 | 64 | 1025.3 |
| 20260903193219 | 65 | 338 | 0.0 | 0.0 | 0.00 | 0.00 | 0.00 | 64 | 1025.3 |
| 20260903192715 | 65 | 338 | 0.0 | 0.0 | 0.00 | 0.00 | 0.00 | 63 | 1025.3 |
| 20260903192213 | 65 | 348 | 0.0 | 0.0 | 0.00 | 0.00 | 0.00 | 62 | 1025.3 |
| 20260903191721 | 66 | 355 | 0.0 | 0.0 | 0.00 | 0.00 | 0.00 | 61 | 1025.2 |
| 20260903190727 | 66 | 327 | 0.0 | 0.0 | 0.00 | 0.00 | 0.00 | 61 | 1025.2 |
| 20260903190221 | 67 | 5 | 0.0 | 4.0 | 0.00 | 0.00 | 0.00 | 59 | 1025.1 |
| 20260903185719 | 67 | 315 | 0.0 | 4.0 | 0.00 | 0.00 | 0.00 | 59 | 1025.1 |
| 20260903185226 | 68 | 344 | 0.0 | 4.0 | 0.00 | 0.00 | 0.00 | 58 | 1025.0 |
| 20260903184715 | 68 | 34 | 0.0 | 0.0 | 0.00 | 0.00 | 0.00 | 56 | 1024.9 |
| 20260903184224 | 68 | 344 | 0.0 | 0.0 | 0.00 | 0.00 | 0.00 | 57 | 1024.8 |
| 20260903183725 | 68 | 337 | 0.0 | 0.0 | 0.00 | 0.00 | 0.00 | 56 | 1024.8 |
| 20260903182726 | 69 | 32 | 0.0 | 4.0 | 0.00 | 0.00 | 0.00 | 55 | 1024.7 |
| 20260903182214 | 69 | 11 | 0.0 | 5.0 | 0.00 | 0.00 | 0.00 | 54 | 1024.7 |
| 20260903180750 | 69 | 344 | 1.0 | 7.0 | 0.00 | 0.00 | 0.00 | 54 | 1024.6 |
| 20260903180226 | 69 | 344 | 0.0 | 3.0 | 0.00 | 0.00 | 0.00 | 54 | 1024.5 |
| 20260903175726 | 69 | 331 | 0.0 | 0.0 | 0.00 | 0.00 | 0.00 | 53 | 1024.4 |
| 20260903175223 | 69 | 32 | 0.0 | 0.0 | 0.00 | 0.00 | 0.00 | 55 | 1024.4 |
| 20260903174718 | 70 | 21 | 0.0 | 0.0 | 0.00 | 0.00 | 0.00 | 55 | 1024.3 |
| 20260903174213 | 70 | 0 | 0.0 | 0.0 | 0.00 | 0.00 | 0.00 | 56 | 1024.4 |
| 20260903173224 | 71 | 38 | 0.0 | 0.0 | 0.00 | 0.00 | 0.00 | 54 | 1024.3 |
| 20260903172718 | 71 | 355 | 0.0 | 0.0 | 0.00 | 0.00 | 0.00 | 53 | 1024.4 |
| 20260903172214 | 72 | 334 | 0.0 | 0.0 | 0.00 | 0.00 | 0.00 | 52 | 1024.3 |
| 20260903171731 | 72 | 334 | 0.0 | 0.0 | 0.00 | 0.00 | 0.00 | 51 | 1024.4 |
| 20260903170223 | 73 | 345 | 0.0 | 3.0 | 0.00 | 0.00 | 0.00 | 49 | 1024.3 |
| 20260903165719 | 73 | 236 | 0.0 | 3.0 | 0.00 | 0.00 | 0.00 | 47 | 1024.3 |
| 20260903165225 | 74 | 323 | 0.0 | 3.0 | 0.00 | 0.00 | 0.00 | 45 | 1024.3 |
| 20260903164718 | 74 | 340 | 0.0 | 0.0 | 0.00 | 0.00 | 0.00 | 43 | 1024.4 |
| 20260903164227 | 75 | 76 | 0.0 | 7.0 | 0.00 | 0.00 | 0.00 | 45 | 1024.3 |
| 20260903163725 | 75 | 351 | 0.0 | 9.0 | 0.00 | 0.00 | 0.00 | 45 | 1024.3 |
| 20260903163227 | 75 | 342 | 2.0 | 9.0 | 0.00 | 0.00 | 0.00 | 44 | 1024.1 |
| 20260903162716 | 75 | 344 | 2.0 | 9.0 | 0.00 | 0.00 | 0.00 | 42 | 1024.3 |
| 20260903162218 | 75 | 34 | 1.0 | 9.0 | 0.00 | 0.00 | 0.00 | 42 | 1024.3 |
| 20260903161219 | 75 | 323 | 2.0 | 9.0 | 0.00 | 0.00 | 0.00 | 43 | 1024.3 |
| 20260903160727 | 75 | 349 | 1.0 | 10.0 | 0.00 | 0.00 | 0.00 | 43 | 1024.4 |
| 20260903160223 | 75 | 119 | 1.0 | 10.0 | 0.00 | 0.00 | 0.00 | 41 | 1024.3 |
| 20260903155753 | 76 | 126 | 2.0 | 10.0 | 0.00 | 0.00 | 0.00 | 41 | 1024.4 |
| 20260903155215 | 76 | 315 | 5.0 | 10.0 | 0.00 | 0.00 | 0.00 | 41 | 1024.4 |
| 20260903154712 | 76 | 341 | 6.0 | 10.0 | 0.00 | 0.00 | 0.00 | 40 | 1024.5 |
| 20260903154235 | 76 | 323 | 5.0 | 10.0 | 0.00 | 0.00 | 0.00 | 40 | 1024.5 |
| 20260903153715 | 76 | 349 | 2.0 | 8.0 | 0.00 | 0.00 | 0.00 | 40 | 1024.5 |
| 20260903153216 | 76 | 321 | 1.0 | 10.0 | 0.00 | 0.00 | 0.00 | 39 | 1024.5 |
| 20260903152712 | 76 | 251 | 3.0 | 10.0 | 0.00 | 0.00 | 0.00 | 40 | 1024.4 |
| 20260903152211 | 76 | 270 | 3.0 | 10.0 | 0.00 | 0.00 | 0.00 | 39 | 1024.4 |
| 20260903151725 | 76 | 313 | 2.0 | 11.0 | 0.00 | 0.00 | 0.00 | 38 | 1024.4 |
| 20260903151220 | 76 | 266 | 3.0 | 12.0 | 0.00 | 0.00 | 0.00 | 38 | 1024.4 |
| 20260903145719 | 76 | 259 | 6.0 | 13.0 | 0.00 | 0.00 | 0.00 | 38 | 1024.4 |
| 20260903145216 | 76 | 300 | 5.0 | 10.0 | 0.00 | 0.00 | 0.00 | 38 | 1024.5 |
| 20260903144722 | 76 | 309 | 5.0 | 10.0 | 0.00 | 0.00 | 0.00 | 39 | 1024.4 |
| 20260903143717 | 76 | 328 | 5.0 | 10.0 | 0.00 | 0.00 | 0.00 | 41 | 1024.4 |
| 20260903143228 | 76 | 326 | 4.0 | 9.0 | 0.00 | 0.00 | 0.00 | 40 | 1024.4 |
| 20260903142714 | 76 | 288 | 4.0 | 12.0 | 0.00 | 0.00 | 0.00 | 40 | 1024.5 |
| 20260903142226 | 75 | 302 | 4.0 | 12.0 | 0.00 | 0.00 | 0.00 | 41 | 1024.5 |
| 20260903141727 | 75 | 305 | 3.0 | 12.0 | 0.00 | 0.00 | 0.00 | 41 | 1024.5 |
| 20260903141231 | 76 | 263 | 2.0 | 9.0 | 0.00 | 0.00 | 0.00 | 41 | 1024.5 |
| 20260903140721 | 76 | 296 | 1.0 | 9.0 | 0.00 | 0.00 | 0.00 | 41 | 1024.5 |
| 20260903140210 | 76 | 165 | 1.0 | 7.0 | 0.00 | 0.00 | 0.00 | 41 | 1024.6 |
| 20260903135718 | 76 | 96 | 0.0 | 7.0 | 0.00 | 0.00 | 0.00 | 42 | 1024.4 |
| 20260903135220 | 76 | 66 | 1.0 | 7.0 | 0.00 | 0.00 | 0.00 | 41 | 1024.4 |
| 20260903134732 | 76 | 308 | 2.0 | 7.0 | 0.00 | 0.00 | 0.00 | 40 | 1024.5 |
| 20260903134215 | 76 | 199 | 2.0 | 9.0 | 0.00 | 0.00 | 0.00 | 41 | 1024.5 |
| 20260903133747 | 76 | 342 | 3.0 | 9.0 | 0.00 | 0.00 | 0.00 | 41 | 1024.6 |
| 20260903133228 | 76 | 66 | 3.0 | 9.0 | 0.00 | 0.00 | 0.00 | 41 | 1024.5 |
| 20260903132745 | 77 | 148 | 2.0 | 8.0 | 0.00 | 0.00 | 0.00 | 40 | 1024.5 |
| 20260903131720 | 77 | 111 | 1.0 | 10.0 | 0.00 | 0.00 | 0.00 | 42 | 1024.6 |
| 20260903131214 | 76 | 61 | 2.0 | 10.0 | 0.00 | 0.00 | 0.00 | 40 | 1024.6 |
| 20260903130729 | 77 | 321 | 2.0 | 9.0 | 0.00 | 0.00 | 0.00 | 40 | 1024.5 |
| 20260903130227 | 76 | 304 | 2.0 | 11.0 | 0.00 | 0.00 | 0.00 | 41 | 1024.6 |
| 20260903125715 | 76 | 170 | 3.0 | 11.0 | 0.00 | 0.00 | 0.00 | 41 | 1024.6 |
| 20260903125220 | 76 | 151 | 4.0 | 14.0 | 0.00 | 0.00 | 0.00 | 42 | 1024.5 |
| 20260903124712 | 76 | 80 | 5.0 | 14.0 | 0.00 | 0.00 | 0.00 | 41 | 1024.4 |
| 20260903124217 | 76 | 125 | 4.0 | 13.0 | 0.00 | 0.00 | 0.00 | 41 | 1024.5 |
| 20260903123719 | 75 | 165 | 3.0 | 12.0 | 0.00 | 0.00 | 0.00 | 41 | 1024.5 |
| 20260903123213 | 76 | 128 | 2.0 | 12.0 | 0.00 | 0.00 | 0.00 | 41 | 1024.3 |
| 20260903122714 | 76 | 70 | 3.0 | 12.0 | 0.00 | 0.00 | 0.00 | 42 | 1024.6 |
| 20260903122219 | 75 | 177 | 4.0 | 12.0 | 0.00 | 0.00 | 0.00 | 42 | 1024.6 |
| 20260903121721 | 75 | 181 | 5.0 | 12.0 | 0.00 | 0.00 | 0.00 | 42 | 1024.6 |
| 20260903121223 | 75 | 179 | 5.0 | 14.0 | 0.00 | 0.00 | 0.00 | 42 | 1024.7 |
| 20260903120722 | 75 | 153 | 4.0 | 14.0 | 0.00 | 0.00 | 0.00 | 41 | 1024.7 |
| 20260903120219 | 75 | 166 | 2.0 | 14.0 | 0.00 | 0.00 | 0.00 | 41 | 1024.7 |
| 20260903115721 | 76 | 161 | 1.0 | 10.0 | 0.00 | 0.00 | 0.00 | 41 | 1024.8 |
| 20260903115221 | 75 | 280 | 3.0 | 10.0 | 0.00 | 0.00 | 0.00 | 43 | 1024.9 |
| 20260903114728 | 75 | 355 | 2.0 | 6.0 | 0.00 | 0.00 | 0.00 | 42 | 1024.9 |
| 20260903114226 | 74 | 5 | 1.0 | 5.0 | 0.00 | 0.00 | 0.00 | 39 | 1024.7 |
| 20260903113223 | 74 | 305 | 1.0 | 10.0 | 0.00 | 0.00 | 0.00 | 38 | 1024.9 |
| 20260903112722 | 75 | 202 | 2.0 | 10.0 | 0.00 | 0.00 | 0.00 | 36 | 1024.9 |
| 20260903111716 | 74 | 302 | 3.0 | 15.0 | 0.00 | 0.00 | 0.00 | 35 | 1025.3 |
| 20260903111213 | 73 | 341 | 5.0 | 15.0 | 0.00 | 0.00 | 0.00 | 39 | 1025.4 |
| 20260903110711 | 73 | 333 | 4.0 | 15.0 | 0.00 | 0.00 | 0.00 | 40 | 1025.3 |
| 20260903110209 | 74 | 306 | 3.0 | 11.0 | 0.00 | 0.00 | 0.00 | 39 | 1025.2 |
| 20260903105713 | 73 | 350 | 3.0 | 11.0 | 0.00 | 0.00 | 0.00 | 39 | 1025.2 |
| 20260903105214 | 73 | 22 | 2.0 | 11.0 | 0.00 | 0.00 | 0.00 | 37 | 1025.3 |
| 20260903104714 | 73 | 286 | 2.0 | 11.0 | 0.00 | 0.00 | 0.00 | 40 | 1025.3 |
| 20260903104217 | 73 | 346 | 2.0 | 11.0 | 0.00 | 0.00 | 0.00 | 43 | 1025.4 |
| 20260903103722 | 72 | 342 | 4.0 | 11.0 | 0.00 | 0.00 | 0.00 | 43 | 1025.3 |
| 20260903103211 | 72 | 342 | 5.0 | 13.0 | 0.00 | 0.00 | 0.00 | 43 | 1025.4 |
| 20260903102725 | 73 | 313 | 5.0 | 13.0 | 0.00 | 0.00 | 0.00 | 44 | 1025.3 |
| 20260903102219 | 72 | 0 | 5.0 | 13.0 | 0.00 | 0.00 | 0.00 | 45 | 1025.2 |
| 20260903101716 | 72 | 321 | 4.0 | 12.0 | 0.00 | 0.00 | 0.00 | 45 | 1025.2 |
| 20260903101215 | 72 | 266 | 5.0 | 17.0 | 0.00 | 0.00 | 0.00 | 44 | 1025.4 |
| 20260903100223 | 72 | 340 | 5.0 | 12.0 | 0.00 | 0.00 | 0.00 | 42 | 1025.5 |
| 20260903095724 | 72 | 329 | 3.0 | 7.0 | 0.00 | 0.00 | 0.00 | 42 | 1025.4 |
| 20260903095207 | 72 | 192 | 1.0 | 7.0 | 0.00 | 0.00 | 0.00 | 44 | 1025.4 |
| 20260903094733 | 72 | 351 | 1.0 | 6.0 | 0.00 | 0.00 | 0.00 | 48 | 1025.4 |
| 20260903094219 | 71 | 130 | 1.0 | 8.0 | 0.00 | 0.00 | 0.00 | 51 | 1025.4 |
| 20260903093205 | 70 | 164 | 2.0 | 9.0 | 0.00 | 0.00 | 0.00 | 53 | 1025.5 |
| 20260903092717 | 70 | 173 | 3.0 | 9.0 | 0.00 | 0.00 | 0.00 | 52 | 1025.5 |
| 20260903090732 | 69 | 165 | 3.0 | 10.0 | 0.00 | 0.00 | 0.00 | 54 | 1025.5 |
| 20260903090219 | 69 | 179 | 2.0 | 8.0 | 0.00 | 0.00 | 0.00 | 55 | 1025.4 |
| 20260903085226 | 69 | 183 | 2.0 | 7.0 | 0.00 | 0.00 | 0.00 | 55 | 1025.4 |
| 20260903084715 | 68 | 137 | 1.0 | 6.0 | 0.00 | 0.00 | 0.00 | 57 | 1025.5 |
| 20260903084208 | 68 | 176 | 1.0 | 7.0 | 0.00 | 0.00 | 0.00 | 57 | 1025.4 |
| 20260903083706 | 67 | 219 | 2.0 | 7.0 | 0.00 | 0.00 | 0.00 | 59 | 1025.4 |